sat.trackr.live / text

‹ back to catalog

ONEWEB-0019

NORAD 45449 · 2020-020AB

PAYLOAD ACTIVE UNKNOWN

§ Identity

Operator
Country
UK
Launch date
2020-03-21
Launch site
TYMSC
Launch vehicle
Mass (kg)
RCS (m²)

Purposes: comms

External: N2YO · Heavens-Above · Gunter

§ Orbital elements

Epoch: 2026-05-25T02:16:26.918400Z

Period
109.80 min
Inclination
87.8914°
Eccentricity
0.0001650
Mean motion
13.11417711 rev/d
Perigee alt
1,216.4 km
Apogee alt
1,218.9 km
Semi-major
7,595.8 km
B*
-3.3317e-4
RAAN
25.6491°
Arg perigee
80.8202°
Mean anomaly
279.3113°
Rev number
29,951

§ Raw data

ONEWEB-00191 45449U 20020AB  26145.09475600 -.00000105  00000+0 -33317-3 0  99962 45449  87.8914  25.6491 0001650  80.8202 279.3113 13.11417711299513

JSON: /api/v1/satellites/45449 · /tle

For live sub-satellite position, see the globe view (requires WebGL).

§ Visibility from observer

Set your observer location to see the next 7 days of passes ≥ 10°. The values pass through the URL so the page stays shareable.

No JS? Fill the form by hand. The geolocation button needs JavaScript.